Location: Mentone
(34.5413°N, 85.5351°W)
Time: 06:03:12
(UTC-05:00)

Centaur AC-72 - Visible Passes

Search period start: 29 June 2016 00:00
Search period end: 09 July 2016 00:00
Orbit: 1104 x 35252 km, 19.6° (Epoch: 27 June)

Date Brightness Start Highest point End Pass type
(mag) Time Alt. Az. Time Alt. Az. Time Alt. Az.
29 Jun 7.1 14:13:06 10° W 16:08:55 55° WSW 23:35:01 10° SW visible
30 Jun 6.9 11:13:55 10° WSW 15:12:03 69° SSE 21:01:47 10° SSE visible
02 Jul 10.1 17:27:49 10° W 18:43:59 19° W 20:58:15 10° W visible
03 Jul 7.0 13:56:55 10° W 15:51:47 55° WSW 23:19:19 10° SW visible
04 Jul 6.8 10:58:05 10° WSW 15:01:34 68° SSE 20:45:46 10° SSE visible
06 Jul 9.9 17:09:21 10° W 18:27:19 20° W 20:48:25 10° W visible
07 Jul 7.0 13:40:46 10° W 15:34:34 56° WSW 23:03:38 10° SW visible
08 Jul 6.8 10:42:17 10° WSW 14:50:54 67° SSE 20:29:45 10° SSE visible
